Location: L�Ave Maria
(50.7161°N, 1.5911°E)
Time: 00:19:52
(UTC+00:00)

EO 1 Del DPAF - Pass Details

Date: 10 July 2020
Orbit: 512 x 518 km, 98.0° (Epoch: 03 August)

Event Time Altitude Azimuth Distance (km) Brightness Sun altitude
Rises 22:56:50 0° 14° (NNE) 2,644 7.9 -15.9°
Reaches altitude 10° 22:58:57 10° 15° (NNE) 1,751 6.8 -16.0°
Maximum altitude 23:02:43 88° 102° (ESE) 521 3.1 -16.2°
Enters shadow 23:04:25 31° 194° (SSW) 914 3.9 -16.2°
